TimeCST,TemperatureF,Dew PointF,Humidity,Sea Level PressureIn,VisibilityMPH,Wind Direction,Wind SpeedMPH,Gust SpeedMPH,PrecipitationIn,Events,Conditions,WindDirDegrees,DateUTC
12:52 AM,42.1,30.0,62,30.04,10.0,WNW,4.6,-,N/A,,Clear,300,2012-11-07 06:52:00
1:52 AM,41.0,28.9,62,30.05,10.0,WNW,4.6,-,N/A,,Clear,300,2012-11-07 07:52:00
2:52 AM,39.0,28.9,67,30.05,10.0,NW,5.8,-,N/A,,Clear,310,2012-11-07 08:52:00
3:52 AM,37.9,28.9,70,30.06,10.0,NW,5.8,-,N/A,,Clear,310,2012-11-07 09:52:00
4:52 AM,37.4,28.4,70,30.06,10.0,NW,5.8,-,N/A,,Clear,310,2012-11-07 10:52:00
5:52 AM,37.0,28.9,73,30.09,10.0,West,8.1,-,N/A,,Clear,280,2012-11-07 11:52:00
6:52 AM,37.0,28.9,73,30.10,10.0,West,9.2,-,N/A,,Clear,280,2012-11-07 12:52:00
7:52 AM,39.9,30.0,68,30.12,10.0,WNW,8.1,-,N/A,,Clear,300,2012-11-07 13:52:00
8:52 AM,44.1,33.1,65,30.13,10.0,NW,12.7,18.4,N/A,,Clear,320,2012-11-07 14:52:00
9:52 AM,46.9,35.1,63,30.14,10.0,NNW,13.8,-,N/A,,Clear,330,2012-11-07 15:52:00
10:52 AM,48.9,35.1,59,30.15,10.0,North,15.0,-,N/A,,Clear,350,2012-11-07 16:52:00
11:52 AM,51.1,34.0,52,30.14,10.0,NNW,19.6,25.3,N/A,,Clear,340,2012-11-07 17:52:00
12:52 PM,52.0,33.1,49,30.12,10.0,North,15.0,-,N/A,,Clear,350,2012-11-07 18:52:00
1:52 PM,53.1,34.0,48,30.11,10.0,NW,6.9,-,N/A,,Clear,320,2012-11-07 19:52:00
2:52 PM,53.1,34.0,48,30.11,10.0,North,8.1,-,N/A,,Clear,360,2012-11-07 20:52:00
3:52 PM,53.1,35.1,50,30.12,10.0,NNW,4.6,-,N/A,,Clear,330,2012-11-07 21:52:00
4:52 PM,50.0,34.0,54,30.12,10.0,North,4.6,-,N/A,,Clear,360,2012-11-07 22:52:00
5:52 PM,46.0,33.1,61,30.13,10.0,ENE,3.5,-,N/A,,Clear,60,2012-11-07 23:52:00
6:52 PM,39.9,32.0,73,30.14,10.0,East,3.5,-,N/A,,Clear,90,2012-11-08 00:52:00
7:52 PM,39.0,32.0,76,30.14,10.0,ESE,3.5,-,N/A,,Clear,110,2012-11-08 01:52:00
8:52 PM,37.0,30.9,79,30.14,10.0,SSE,3.5,-,N/A,,Clear,160,2012-11-08 02:52:00
9:52 PM,36.0,30.9,82,30.15,10.0,SSE,4.6,-,N/A,,Clear,160,2012-11-08 03:52:00
10:52 PM,36.0,30.9,82,30.14,10.0,North,-9999.0,-,N/A,,Clear,0,2012-11-08 04:52:00
11:52 PM,36.0,30.9,82,30.15,10.0,SE,8.1,-,N/A,,Clear,140,2012-11-08 05:52:00